East Taunton, MA

2:18 AM EDT on July 28, 2016 (GMT -0400)
Taunton Municipal

Weather History for KTAN - June, 2013

Change the Weather History Date:

Saturday, June 29, 2013

  Actual Average Record
Temperature  
Mean Temperature 75 °F -  
Max Temperature 81 °F 80 °F 96 °F (1991)
Min Temperature 71 °F 56 °F 38 °F (1986)
Cooling Degree Days 10    
Growing Degree Days 25 (Base 50)    
Moisture  
Dew Point 69 °F    
Average Humidity 87    
Maximum Humidity 94    
Minimum Humidity 62    
Precipitation  
Precipitation 0.02 in - - ()
Sea Level Pressure  
Sea Level Pressure 29.61 in    
Wind  
Wind Speed 7 mph (South)    
Max Wind Speed 15 mph    
Max Gust Speed 24 mph    
Visibility 7 miles    
Events Rain    
Averages and records for this station are not official NWS values.
T = Trace of Precipitation, MM = Missing Value Source: NWS Daily Summary

Daily Weather History Graph

Daily Weather History Graph

Search for Another Location

Airport or City:

Trip Planner

Search our weather history database for the weather conditions in past years. The results will help you decide how hot, cold, wet, or windy it might be!

Date:

Astronomy

Jun. 29, 2013 Rise Set
Actual Time 5:11 AM EDT 8:23 PM EDT
Civil Twilight 4:37 AM EDT 8:57 PM EDT
Nautical Twilight 3:53 AM EDT 9:41 PM EDT
Astronomical Twilight 3:00 AM EDT 10:34 PM EDT
Moon No Moon Rise 12:27 PM EDT (6/29)
Length of Visible Light 16h 19m
Length of Day
15h 11m
Waning Gibbous, 56% of the Moon is Illuminated
Jun 29
Waning Gibbous
Jun 30
Last Quarter
Jul 8
New
Jul 15
First Quarter
Jul 22
Full

Hourly Weather History & Observations

Time (EDT) Temp. Dew Point Humidity Pressure Visibility Wind Dir Wind Speed Gust Speed Precip Events Conditions
12:07 AM 71.1 °F 69.1 °F 93% 29.57 in 2.5 mi Variable 5.8 mph - N/A   Overcast
12:21 AM 71.1 °F 69.1 °F 93% 29.57 in 3.0 mi South 8.1 mph - N/A   Overcast
12:52 AM 71.1 °F 69.1 °F 93% 29.55 in 3.0 mi South 5.8 mph - N/A   Overcast
1:19 AM 71.1 °F 69.1 °F 93% 29.55 in 2.5 mi South 4.6 mph - N/A   Overcast
1:52 AM 71.1 °F 69.1 °F 93% 29.54 in 2.5 mi SSE 5.8 mph - N/A   Overcast
2:29 AM 71.1 °F 69.1 °F 93% 29.54 in 1.8 mi SSE 4.6 mph - N/A   Overcast
2:38 AM 71.1 °F 69.1 °F 93% 29.53 in 2.0 mi SSE 4.6 mph - N/A   Overcast
2:52 AM 71.1 °F 69.1 °F 93% 29.54 in 2.0 mi South 4.6 mph - N/A   Overcast
3:33 AM 71.1 °F 69.1 °F 93% 29.53 in 1.8 mi SSE 4.6 mph - N/A   Overcast
3:52 AM 71.1 °F 69.1 °F 93% 29.53 in 1.8 mi SSE 5.8 mph - N/A   Overcast
4:03 AM 71.1 °F 69.1 °F 93% 29.53 in 2.5 mi South 3.5 mph - N/A   Overcast
4:52 AM 71.1 °F 69.1 °F 93% 29.54 in 2.0 mi SSE 5.8 mph - N/A   Overcast
5:44 AM 71.1 °F 69.1 °F 93% 29.55 in 4.0 mi SSE 4.6 mph - 0.00 in Rain Light Rain
5:52 AM 71.1 °F 69.1 °F 93% 29.56 in 5.0 mi SSE 4.6 mph - 0.01 in Rain Light Rain
6:12 AM 71.1 °F 69.1 °F 93% 29.56 in 8.0 mi Calm Calm - 0.00 in Rain Light Rain
6:47 AM 71.6 °F 69.8 °F 94% 29.57 in 10.0 mi SSW 3.5 mph - 0.00 in   Mostly Cloudy
6:52 AM 71.1 °F 69.1 °F 93% 29.57 in 10.0 mi South 3.5 mph - 0.00 in   Mostly Cloudy
7:01 AM 71.1 °F 69.1 °F 93% 29.57 in 10.0 mi South 4.6 mph - N/A   Mostly Cloudy
7:21 AM 72.0 °F 69.1 °F 91% 29.57 in 10.0 mi SSW 4.6 mph - N/A   Mostly Cloudy
7:52 AM 72.0 °F 70.0 °F 93% 29.58 in 10.0 mi SSE 4.6 mph - N/A   Overcast
8:40 AM 73.0 °F 70.0 °F 90% 29.60 in 9.0 mi South 6.9 mph - N/A   Overcast
8:52 AM 73.0 °F 70.0 °F 90% 29.60 in 9.0 mi SSW 5.8 mph - N/A   Overcast
9:52 AM 73.0 °F 70.0 °F 90% 29.61 in 7.0 mi South 5.8 mph - N/A   Overcast
10:52 AM 73.0 °F 69.1 °F 87% 29.60 in 5.0 mi South 8.1 mph - 0.00 in   Overcast
11:52 AM 75.0 °F 70.0 °F 84% 29.62 in 8.0 mi South 8.1 mph - N/A   Mostly Cloudy
12:08 PM 75.9 °F 69.1 °F 79% 29.61 in 10.0 mi Variable 5.8 mph 17.3 mph N/A   Mostly Cloudy
12:52 PM 78.1 °F 69.1 °F 74% 29.62 in 10.0 mi South 12.7 mph 16.1 mph N/A   Mostly Cloudy
1:52 PM 78.1 °F 66.9 °F 68% 29.62 in 10.0 mi SW 12.7 mph 21.9 mph N/A   Clear
2:52 PM 79.0 °F 66.0 °F 64% 29.63 in 10.0 mi SSW 13.8 mph 24.2 mph N/A   Clear
3:52 PM 79.0 °F 64.9 °F 62% 29.64 in 10.0 mi SSW 13.8 mph 24.2 mph N/A   Clear
4:52 PM 78.1 °F 66.0 °F 66% 29.66 in 10.0 mi South 15.0 mph 24.2 mph N/A   Clear
5:52 PM 75.9 °F 69.1 °F 79% 29.66 in 10.0 mi South 11.5 mph 23.0 mph N/A   Mostly Cloudy
6:47 PM 75.2 °F 68.0 °F 78% 29.66 in 10.0 mi SSW 11.5 mph 19.6 mph N/A   Overcast
6:52 PM 73.9 °F 68.0 °F 82% 29.67 in 10.0 mi SSW 15.0 mph 21.9 mph N/A   Overcast
7:20 PM 73.9 °F 68.0 °F 82% 29.67 in 10.0 mi SSW 9.2 mph 18.4 mph N/A   Overcast
7:52 PM 73.0 °F 68.0 °F 84% 29.68 in 10.0 mi South 10.4 mph 18.4 mph N/A   Overcast
8:52 PM 73.0 °F 68.0 °F 84% 29.70 in 10.0 mi SW 10.4 mph - N/A   Overcast
9:52 PM 72.0 °F 68.0 °F 87% 29.72 in 8.0 mi SSW 6.9 mph - N/A   Overcast
9:59 PM 72.0 °F 68.0 °F 87% 29.73 in 8.0 mi South 8.1 mph - N/A   Overcast
10:52 PM 71.1 °F 69.1 °F 93% 29.73 in 4.0 mi South 5.8 mph - N/A   Overcast
11:30 PM 71.1 °F 69.1 °F 93% 29.74 in 5.0 mi South 6.9 mph - 0.01 in   Overcast
11:52 PM 71.1 °F 69.1 °F 93% 29.75 in 6.0 mi SSW 5.8 mph - 0.01 in   Overcast